TimeEDT,TemperatureF,Dew PointF,Humidity,Sea Level PressureIn,VisibilityMPH,Wind Direction,Wind SpeedMPH,Gust SpeedMPH,PrecipitationIn,Events,Conditions,WindDirDegrees,DateUTC
12:25 AM,55.4,51.8,88,29.96,10.0,ENE,8.1,-,N/A,,Overcast,70,2012-10-28 04:25:00
12:56 AM,55.0,51.1,86,29.97,10.0,ENE,4.6,-,N/A,,Overcast,70,2012-10-28 04:56:00
1:56 AM,55.0,50.0,83,29.95,10.0,ENE,10.4,-,N/A,,Overcast,60,2012-10-28 05:56:00
3:56 AM,55.9,50.0,80,29.91,10.0,ENE,9.2,-,N/A,,Overcast,70,2012-10-28 07:56:00
4:56 AM,55.9,48.9,77,29.91,10.0,East,9.2,-,N/A,,Overcast,80,2012-10-28 08:56:00
5:56 AM,55.9,50.0,80,29.91,10.0,ENE,6.9,16.1,N/A,,Overcast,60,2012-10-28 09:56:00
6:56 AM,55.9,50.0,80,29.91,10.0,ENE,12.7,17.3,N/A,,Overcast,60,2012-10-28 10:56:00
7:56 AM,55.9,50.0,80,29.92,10.0,ENE,10.4,19.6,N/A,,Overcast,60,2012-10-28 11:56:00
8:56 AM,55.9,52.0,87,29.92,10.0,NE,13.8,18.4,N/A,,Overcast,50,2012-10-28 12:56:00
9:03 AM,55.4,51.8,88,29.92,10.0,NE,13.8,-,N/A,,Overcast,50,2012-10-28 13:03:00
9:40 AM,57.2,51.8,82,29.92,10.0,ENE,12.7,-,N/A,,Overcast,60,2012-10-28 13:40:00
9:56 AM,57.0,51.1,81,29.93,10.0,NE,10.4,18.4,N/A,,Overcast,50,2012-10-28 13:56:00
10:27 AM,57.2,51.8,82,29.90,10.0,NE,17.3,24.2,N/A,,Mostly Cloudy,40,2012-10-28 14:27:00
10:56 AM,57.9,51.1,78,29.91,10.0,NE,12.7,-,N/A,,Mostly Cloudy,50,2012-10-28 14:56:00
11:36 AM,57.2,51.8,82,29.91,10.0,ENE,16.1,23.0,N/A,,Overcast,60,2012-10-28 15:36:00
11:56 AM,57.9,51.1,78,29.91,10.0,ENE,12.7,24.2,N/A,,Overcast,60,2012-10-28 15:56:00
12:53 PM,55.4,51.8,88,29.86,7.0,NE,12.7,21.9,N/A,,Overcast,50,2012-10-28 16:53:00
1:56 PM,57.9,52.0,81,29.84,10.0,NE,18.4,28.8,N/A,,Overcast,50,2012-10-28 17:56:00
2:56 PM,57.0,52.0,83,29.81,10.0,NE,17.3,26.5,N/A,,Overcast,50,2012-10-28 18:56:00
3:56 PM,57.0,52.0,83,29.78,10.0,NE,18.4,26.5,N/A,,Overcast,40,2012-10-28 19:56:00
4:56 PM,55.9,50.0,80,29.80,10.0,NE,18.4,27.6,N/A,,Overcast,50,2012-10-28 20:56:00
5:56 PM,54.0,51.1,90,29.81,9.0,ENE,13.8,27.6,0.00,Rain,Light Rain,60,2012-10-28 21:56:00
6:56 PM,53.1,50.0,89,29.83,10.0,NE,13.8,-,0.00,Rain,Light Rain,50,2012-10-28 22:56:00
7:56 PM,53.1,51.1,93,29.80,7.0,NE,15.0,24.2,0.00,Rain,Light Rain,50,2012-10-28 23:56:00
8:56 PM,53.1,52.0,96,29.76,4.0,NE,17.3,25.3,0.01,Rain,Light Rain,40,2012-10-29 00:56:00
9:56 PM,53.1,52.0,96,29.73,5.0,NE,17.3,26.5,0.01,Rain,Light Rain,50,2012-10-29 01:56:00
10:29 PM,53.6,51.8,94,29.70,10.0,ENE,15.0,23.0,0.00,,Overcast,60,2012-10-29 02:29:00
10:56 PM,54.0,52.0,93,29.70,10.0,NE,19.6,25.3,0.00,,Overcast,50,2012-10-29 02:56:00
11:12 PM,53.6,51.8,94,29.69,8.0,NE,11.5,24.2,0.00,Rain,Light Rain,50,2012-10-29 03:12:00
11:56 PM,54.0,53.1,97,29.66,10.0,ENE,13.8,27.6,0.00,,Overcast,60,2012-10-29 03:56:00